Two Harbors, MN

12:39 AM CDT on May 23, 2018 (GMT -0500)
Helgeson

Weather History for KTWM - June, 2012

Change the Weather History Date:

Friday, June 1, 2012

  Actual Average Record
Temperature  
Mean Temperature 47 °F -  
Max Temperature 62 °F 64 °F 80 °F (1997)
Min Temperature 32 °F 41 °F 32 °F (1978)
Degree Days  
Heating Degree Days 18    
Moisture  
Dew Point 35 °F    
Average Humidity 58    
Maximum Humidity 87    
Minimum Humidity 37    
Precipitation  
Precipitation 0.00 in - - ()
Sea Level Pressure  
Sea Level Pressure 29.87 in    
Wind  
Wind Speed 2 mph (ESE)    
Max Wind Speed 8 mph    
Max Gust Speed -    
Visibility 10 miles    
Events      
Averages and records for this station are not official NWS values.
T = Trace of Precipitation, MM = Missing Value Source: NWS Daily Summary

Daily Weather History Graph

Daily Weather History Graph

Search for Another Location

Airport or City:

Astronomy

Jun. 01, 2012 Rise Set
Actual Time 5:15 AM CDT 8:55 PM CDT
Civil Twilight 4:36 AM CDT 9:33 PM CDT
Nautical Twilight 3:44 AM CDT 10:25 PM CDT
Astronomical Twilight 2:33 AM CDT 11:38 PM CDT
Moon 5:50 PM CDT (6/1) 3:02 AM CDT (6/1)
Length of Visible Light 16h 57m
Length of Day
15h 39m
Waxing Gibbous, 89% of the Moon is Illuminated
Jun 1
Waxing Gibbous
Jun 4
Full
Jun 11
Last Quarter
Jun 19
New
Jun 26
First Quarter

Hourly Weather History & Observations

Time (CDT) Temp. Windchill Dew Point Humidity Pressure Visibility Wind Dir Wind Speed Gust Speed Precip Events Conditions
12:12 AM 37.4 °F - 32.0 °F 81% 29.98 in 10.0 mi Calm Calm - N/A   Clear
12:33 AM 37.4 °F 33.8 °F 33.8 °F 87% 29.97 in 10.0 mi NW 4.6 mph - N/A   Clear
12:53 AM 35.6 °F - 30.2 °F 81% 29.97 in 10.0 mi Calm Calm - N/A   Clear
1:12 AM 37.4 °F - 32.0 °F 81% 29.97 in 10.0 mi Calm Calm - N/A   Clear
1:33 AM 37.4 °F 33.8 °F 32.0 °F 81% 29.96 in 10.0 mi NW 4.6 mph - N/A   Clear
1:53 AM 37.4 °F 33.8 °F 30.2 °F 75% 29.96 in 10.0 mi NW 4.6 mph - N/A   Clear
2:12 AM 37.4 °F 33.8 °F 30.2 °F 75% 29.95 in 10.0 mi NNW 4.6 mph - N/A   Clear
2:33 AM 35.6 °F - 30.2 °F 81% 29.95 in 10.0 mi Calm Calm - N/A   Clear
2:53 AM 35.6 °F - 30.2 °F 81% 29.94 in 10.0 mi Calm Calm - N/A   Clear
3:12 AM 33.8 °F - 28.4 °F 81% 29.94 in 10.0 mi Calm Calm - N/A   Clear
3:33 AM 33.8 °F - 28.4 °F 81% 29.93 in 10.0 mi Calm Calm - N/A   Clear
3:53 AM 35.6 °F - 30.2 °F 81% 29.94 in 10.0 mi Calm Calm - N/A   Clear
4:12 AM 32.0 °F - 28.4 °F 87% 29.94 in 10.0 mi Calm Calm - N/A   Clear
4:33 AM 33.8 °F - 28.4 °F 81% 29.94 in 10.0 mi Calm Calm - N/A   Clear
4:53 AM 33.8 °F - 28.4 °F 81% 29.94 in 10.0 mi Calm Calm - N/A   Clear
5:12 AM 33.8 °F - 28.4 °F 81% 29.94 in 10.0 mi Calm Calm - N/A   Clear
5:33 AM 33.8 °F - 28.4 °F 81% 29.94 in 10.0 mi Calm Calm - N/A   Clear
5:53 AM 33.8 °F - 28.4 °F 81% 29.94 in 10.0 mi Calm Calm - N/A   Clear
6:13 AM 35.6 °F - 30.2 °F 81% 29.94 in 10.0 mi Calm Calm - N/A   Clear
6:33 AM 37.4 °F - 32.0 °F 81% 29.94 in 10.0 mi Calm Calm - N/A   Clear
6:53 AM 41.0 °F - 35.6 °F 81% 29.94 in 10.0 mi Calm Calm - N/A   Clear
7:13 AM 44.6 °F - 37.4 °F 76% 29.94 in 10.0 mi Calm Calm - N/A   Clear
7:33 AM 48.2 °F - 37.4 °F 66% 29.94 in 10.0 mi Calm Calm - N/A   Clear
7:53 AM 50.0 °F - 37.4 °F 62% 29.94 in 10.0 mi ENE 3.5 mph - N/A   Clear
8:12 AM 50.0 °F - 37.4 °F 62% 29.93 in 10.0 mi Calm Calm - N/A   Clear
8:33 AM 51.8 °F - 37.4 °F 58% 29.93 in 10.0 mi Calm Calm - N/A   Clear
8:52 AM 53.6 °F - 39.2 °F 58% 29.93 in 10.0 mi Calm Calm - N/A   Clear
9:13 AM 55.4 °F - 37.4 °F 51% 29.93 in 10.0 mi Calm Calm - N/A   Clear
9:33 AM 57.2 °F - 39.2 °F 51% 29.92 in 10.0 mi Calm Calm - N/A   Clear
9:51 AM 57.2 °F - 39.2 °F 51% 29.92 in 10.0 mi SE 3.5 mph - N/A   Clear
10:12 AM 57.2 °F - 39.2 °F 51% 29.92 in 10.0 mi SSE 4.6 mph - N/A   Clear
10:33 AM 59.0 °F - 39.2 °F 48% 29.91 in 10.0 mi ESE 6.9 mph - N/A   Clear
10:53 AM 59.0 °F - 39.2 °F 48% 29.90 in 10.0 mi South 3.5 mph - N/A   Clear
11:12 AM 60.8 °F - 39.2 °F 45% 29.90 in 10.0 mi SE 6.9 mph - N/A   Clear
11:32 AM 60.8 °F - 37.4 °F 42% 29.89 in 10.0 mi South 4.6 mph - N/A   Clear
11:53 AM 60.8 °F - 37.4 °F 42% 29.89 in 10.0 mi SSE 6.9 mph - N/A   Clear
12:13 PM 60.8 °F - 37.4 °F 42% 29.88 in 10.0 mi SSE 5.8 mph - N/A   Clear
12:32 PM 62.6 °F - 39.2 °F 42% 29.87 in 10.0 mi SE 3.5 mph - N/A   Clear
12:53 PM 62.6 °F - 39.2 °F 42% 29.86 in 10.0 mi SE 5.8 mph - N/A   Clear
1:12 PM 62.6 °F - 37.4 °F 39% 29.86 in 10.0 mi ESE 4.6 mph - N/A   Clear
1:33 PM 62.6 °F - 39.2 °F 42% 29.85 in 10.0 mi ESE 5.8 mph - N/A   Clear
1:53 PM 62.6 °F - 39.2 °F 42% 29.85 in 10.0 mi SSE 8.1 mph - N/A   Clear
2:12 PM 62.6 °F - 37.4 °F 39% 29.84 in 10.0 mi SE 6.9 mph - N/A   Clear
2:33 PM 62.6 °F - 37.4 °F 39% 29.83 in 10.0 mi SE 6.9 mph - N/A   Clear
2:53 PM 62.6 °F - 39.2 °F 42% 29.83 in 10.0 mi ESE 8.1 mph - N/A   Clear
3:12 PM 62.6 °F - 37.4 °F 39% 29.82 in 10.0 mi ESE 8.1 mph - N/A   Clear
3:33 PM 62.6 °F - 37.4 °F 39% 29.82 in 10.0 mi SSE 8.1 mph - N/A   Clear
3:53 PM 62.6 °F - 37.4 °F 39% 29.82 in 10.0 mi ESE 8.1 mph - N/A   Clear
4:13 PM 62.6 °F - 37.4 °F 39% 29.82 in 10.0 mi ESE 6.9 mph - N/A   Clear
4:33 PM 62.6 °F - 37.4 °F 39% 29.81 in 10.0 mi ESE 6.9 mph - N/A   Clear
4:53 PM 62.6 °F - 39.2 °F 42% 29.80 in 10.0 mi SSE 5.8 mph - N/A   Clear
5:12 PM 62.6 °F - 37.4 °F 39% 29.79 in 10.0 mi SE 5.8 mph - N/A   Clear
5:33 PM 62.6 °F - 37.4 °F 39% 29.79 in 10.0 mi ESE 4.6 mph - N/A   Clear
5:53 PM 62.6 °F - 37.4 °F 39% 29.78 in 10.0 mi East 4.6 mph - N/A   Clear
6:13 PM 62.6 °F - 35.6 °F 37% 29.78 in 10.0 mi Calm Calm - N/A   Clear
6:33 PM 62.6 °F - 35.6 °F 37% 29.77 in 10.0 mi SSE 4.6 mph - N/A   Clear
6:53 PM 62.6 °F - 35.6 °F 37% 29.77 in 10.0 mi Calm Calm - N/A   Clear
7:12 PM 60.8 °F - 35.6 °F 39% 29.77 in 10.0 mi ESE 3.5 mph - N/A   Clear
7:33 PM 60.8 °F - 37.4 °F 42% 29.77 in 10.0 mi East 3.5 mph - N/A   Clear
7:53 PM 57.2 °F - 35.6 °F 44% 29.76 in 10.0 mi East 3.5 mph - N/A   Clear
8:13 PM 55.4 °F - 37.4 °F 51% 29.77 in 10.0 mi Calm Calm - N/A   Clear
8:33 PM 51.8 °F - 33.8 °F 50% 29.77 in 10.0 mi East 3.5 mph - N/A   Clear
8:53 PM 48.2 °F - 35.6 °F 62% 29.77 in 10.0 mi Calm Calm - N/A   Clear
9:13 PM 48.2 °F - 35.6 °F 62% 29.77 in 10.0 mi Calm Calm - N/A   Mostly Cloudy
9:33 PM 46.4 °F 45.2 °F 35.6 °F 66% 29.77 in 10.0 mi NNE 3.5 mph - N/A   Scattered Clouds
9:53 PM 46.4 °F - 35.6 °F 66% 29.77 in 10.0 mi Calm Calm - N/A   Mostly Cloudy
10:13 PM 48.2 °F - 33.8 °F 58% 29.77 in 10.0 mi North 4.6 mph - N/A   Scattered Clouds
10:33 PM 48.2 °F - 33.8 °F 58% 29.76 in 10.0 mi North 3.5 mph - N/A   Overcast
10:53 PM 48.2 °F - 33.8 °F 58% 29.76 in 10.0 mi NW 3.5 mph - N/A   Mostly Cloudy
11:33 PM 46.4 °F 44.3 °F 33.8 °F 62% 29.74 in 10.0 mi NW 4.6 mph - N/A   Scattered Clouds
11:53 PM 44.6 °F 43.1 °F 33.8 °F 66% 29.74 in 10.0 mi WNW 3.5 mph - N/A   Clear